| time (UTC) | temp F | wind direction | speed MPH | gust MPH | rain 1hr in | rain 24hr in | rain mn in | humidity % | barometer mb |
| 20260904111532 | 79 | 181 | 6.0 | 9.0 | 0.00 | 0.00 | 0.00 | 40 | 988.3 |
| 20260904110017 | 79 | 168 | 8.0 | 9.0 | 0.00 | 0.00 | 0.00 | 43 | 988.2 |
| 20260904104515 | 79 | 184 | 7.0 | 9.0 | 0.00 | 0.00 | 0.00 | 44 | 988.1 |
| 20260904103012 | 79 | 186 | 5.0 | 10.0 | 0.00 | 0.00 | 0.00 | 44 | 988.0 |
| 20260904101517 | 79 | 193 | 7.0 | 10.0 | 0.00 | 0.00 | 0.00 | 45 | 987.9 |
| 20260904100010 | 79 | 175 | 6.0 | 11.0 | 0.00 | 0.00 | 0.00 | 46 | 987.9 |
| 20260904094508 | 79 | 184 | 6.0 | 9.0 | 0.00 | 0.00 | 0.00 | 47 | 987.8 |
| 20260904093007 | 79 | 183 | 6.0 | 9.0 | 0.00 | 0.00 | 0.00 | 47 | 987.6 |
| 20260904091505 | 79 | 190 | 5.0 | 8.0 | 0.00 | 0.00 | 0.00 | 47 | 987.6 |
| 20260904090051 | 79 | 186 | 6.0 | 10.0 | 0.00 | 0.00 | 0.00 | 46 | 987.7 |
| 20260904084557 | 79 | 202 | 6.0 | 8.0 | 0.00 | 0.00 | 0.00 | 47 | 987.7 |
| 20260904083052 | 79 | 202 | 4.0 | 7.0 | 0.00 | 0.00 | 0.00 | 48 | 987.7 |
| 20260904081547 | 79 | 196 | 4.0 | 7.0 | 0.00 | 0.00 | 0.00 | 50 | 987.9 |
| 20260904080105 | 79 | 197 | 5.0 | 10.0 | 0.00 | 0.00 | 0.00 | 53 | 987.9 |
| 20260904074545 | 80 | 194 | 8.0 | 12.0 | 0.00 | 0.00 | 0.00 | 56 | 987.7 |
| 20260904073045 | 80 | 217 | 8.0 | 14.0 | 0.00 | 0.00 | 0.00 | 57 | 987.7 |
| 20260904071544 | 80 | 213 | 9.0 | 12.0 | 0.00 | 0.00 | 0.00 | 57 | 987.9 |
| 20260904070050 | 80 | 213 | 8.0 | 11.0 | 0.00 | 0.00 | 0.00 | 57 | 988.0 |
| 20260904064527 | 80 | 206 | 8.0 | 14.0 | 0.00 | 0.00 | 0.00 | 57 | 988.0 |
| 20260904063028 | 80 | 205 | 8.0 | 15.0 | 0.00 | 0.00 | 0.00 | 58 | 988.0 |
| 20260904061507 | 80 | 202 | 11.0 | 15.0 | 0.00 | 0.00 | 0.00 | 59 | 987.9 |
| 20260904060009 | 80 | 196 | 10.0 | 13.0 | 0.00 | 0.00 | 0.00 | 59 | 988.0 |
| 20260904054553 | 80 | 194 | 9.0 | 14.0 | 0.00 | 0.00 | 0.00 | 60 | 987.9 |
| 20260904053058 | 80 | 209 | 9.0 | 15.0 | 0.00 | 0.00 | 0.00 | 61 | 987.9 |
| 20260904051530 | 80 | 198 | 9.0 | 15.0 | 0.00 | 0.00 | 0.00 | 61 | 987.9 |
| 20260904050029 | 81 | 197 | 9.0 | 17.0 | 0.00 | 0.00 | 0.00 | 63 | 987.8 |
| 20260904044516 | 81 | 180 | 11.0 | 15.0 | 0.00 | 0.00 | 0.00 | 64 | 987.8 |
| 20260904043016 | 81 | 182 | 9.0 | 13.0 | 0.00 | 0.00 | 0.00 | 65 | 987.7 |
| 20260904041515 | 81 | 200 | 9.0 | 14.0 | 0.00 | 0.00 | 0.00 | 66 | 987.7 |
| 20260904040015 | 81 | 190 | 10.0 | 13.0 | 0.00 | 0.00 | 0.00 | 67 | 987.7 |
| 20260904034513 | 81 | 177 | 9.0 | 14.0 | 0.00 | 0.00 | 0.00 | 67 | 987.7 |
| 20260904033022 | 81 | 177 | 13.0 | 16.0 | 0.00 | 0.00 | 0.00 | 68 | 987.6 |
| 20260904031512 | 81 | 173 | 10.0 | 14.0 | 0.00 | 0.00 | 0.00 | 69 | 987.5 |
| 20260904030012 | 81 | 178 | 9.0 | 15.0 | 0.00 | 0.00 | 0.00 | 69 | 987.5 |
| 20260904024558 | 82 | 169 | 10.0 | 12.0 | 0.00 | 0.00 | 0.00 | 69 | 987.4 |
| 20260904023054 | 82 | 175 | 10.0 | 13.0 | 0.00 | 0.00 | 0.00 | 68 | 987.2 |
| 20260904021554 | 82 | 182 | 8.0 | 12.0 | 0.00 | 0.00 | 0.00 | 68 | 987.1 |
| 20260904020043 | 83 | 182 | 9.0 | 13.0 | 0.00 | 0.00 | 0.00 | 67 | 986.8 |
| 20260904014545 | 83 | 175 | 10.0 | 14.0 | 0.00 | 0.00 | 0.00 | 66 | 986.6 |
| 20260904013041 | 84 | 188 | 9.0 | 12.0 | 0.00 | 0.00 | 0.00 | 66 | 986.6 |
| 20260904011546 | 84 | 165 | 9.0 | 15.0 | 0.00 | 0.00 | 0.00 | 65 | 986.5 |
| 20260904010038 | 84 | 171 | 11.0 | 17.0 | 0.00 | 0.00 | 0.00 | 65 | 986.3 |
| 20260904004539 | 85 | 168 | 14.0 | 18.0 | 0.00 | 0.00 | 0.00 | 65 | 986.3 |
| 20260904003037 | 86 | 153 | 13.0 | 20.0 | 0.00 | 0.00 | 0.00 | 65 | 986.3 |
| 20260904001517 | 87 | 146 | 13.0 | 20.0 | 0.00 | 0.00 | 0.00 | 64 | 986.2 |
| 20260904000017 | 87 | 144 | 12.0 | 20.0 | 0.00 | 0.00 | 0.00 | 64 | 986.2 |
| 20260903234558 | 88 | 150 | 12.0 | 19.0 | 0.00 | 0.00 | 0.00 | 64 | 985.9 |
| 20260903233058 | 88 | 186 | 18.0 | 25.0 | 0.00 | 0.00 | 0.00 | 62 | 985.9 |
| 20260903231546 | 89 | 166 | 18.0 | 25.0 | 0.00 | 0.00 | 0.00 | 60 | 985.8 |
| 20260903230039 | 89 | 177 | 20.0 | 26.0 | 0.00 | 0.00 | 0.00 | 60 | 985.6 |
| 20260903224523 | 90 | 148 | 17.0 | 23.0 | 0.00 | 0.00 | 0.00 | 65 | 985.6 |
| 20260903223022 | 90 | 150 | 15.0 | 24.0 | 0.00 | 0.00 | 0.00 | 65 | 985.5 |
| 20260903221509 | 91 | 136 | 16.0 | 25.0 | 0.00 | 0.00 | 0.00 | 64 | 985.5 |
| 20260903220007 | 91 | 144 | 19.0 | 23.0 | 0.00 | 0.00 | 0.00 | 62 | 985.5 |
| 20260903214506 | 91 | 146 | 14.0 | 21.0 | 0.00 | 0.00 | 0.00 | 62 | 985.5 |
| 20260903213104 | 90 | 130 | 14.0 | 20.0 | 0.00 | 0.00 | 0.00 | 63 | 985.8 |
| 20260903211504 | 91 | 145 | 15.0 | 23.0 | 0.00 | 0.00 | 0.00 | 63 | 985.8 |
| 20260903210003 | 92 | 146 | 12.0 | 19.0 | 0.00 | 0.00 | 0.00 | 62 | 985.9 |
| 20260903204606 | 92 | 165 | 14.0 | 20.0 | 0.00 | 0.00 | 0.00 | 62 | 986.0 |
| 20260903203056 | 91 | 146 | 14.0 | 20.0 | 0.00 | 0.00 | 0.00 | 62 | 986.4 |
| 20260903201536 | 92 | 122 | 9.0 | 19.0 | 0.00 | 0.00 | 0.00 | 60 | 986.7 |
| 20260903200035 | 92 | 137 | 8.0 | 15.0 | 0.00 | 0.00 | 0.00 | 58 | 986.7 |
| 20260903194514 | 92 | 134 | 7.0 | 13.0 | 0.00 | 0.00 | 0.00 | 57 | 986.9 |
| 20260903193016 | 91 | 169 | 7.0 | 14.0 | 0.00 | 0.00 | 0.00 | 59 | 987.0 |
| 20260903191603 | 91 | 157 | 7.0 | 15.0 | 0.00 | 0.00 | 0.00 | 59 | 987.3 |
| 20260903190055 | 90 | 165 | 11.0 | 13.0 | 0.00 | 0.00 | 0.00 | 60 | 987.6 |
| 20260903184558 | 90 | 134 | 7.0 | 11.0 | 0.00 | 0.00 | 0.00 | 62 | 987.8 |
| 20260903183056 | 89 | 133 | 8.0 | 12.0 | 0.00 | 0.00 | 0.00 | 62 | 987.9 |
| 20260903181550 | 89 | 165 | 6.0 | 10.0 | 0.00 | 0.00 | 0.00 | 61 | 988.0 |
| 20260903180048 | 89 | 186 | 8.0 | 11.0 | 0.00 | 0.00 | 0.00 | 62 | 988.3 |
| 20260903174547 | 88 | 178 | 7.0 | 11.0 | 0.00 | 0.00 | 0.00 | 64 | 988.5 |
| 20260903173045 | 88 | 173 | 10.0 | 13.0 | 0.00 | 0.00 | 0.00 | 64 | 988.6 |
| 20260903171531 | 88 | 182 | 9.0 | 12.0 | 0.00 | 0.00 | 0.00 | 64 | 988.8 |
| 20260903170040 | 88 | 157 | 8.0 | 12.0 | 0.00 | 0.00 | 0.00 | 64 | 988.8 |
| 20260903164531 | 87 | 191 | 6.0 | 10.0 | 0.00 | 0.00 | 0.00 | 64 | 989.0 |
| 20260903163036 | 87 | 178 | 7.0 | 10.0 | 0.00 | 0.00 | 0.00 | 64 | 989.1 |
| 20260903161525 | 87 | 213 | 6.0 | 10.0 | 0.00 | 0.00 | 0.00 | 65 | 988.9 |
| 20260903160023 | 87 | 223 | 8.0 | 17.0 | 0.00 | 0.00 | 0.00 | 65 | 988.6 |
| 20260903154520 | 86 | 218 | 9.0 | 16.0 | 0.00 | 0.00 | 0.00 | 66 | 988.3 |
| 20260903153017 | 86 | 220 | 10.0 | 18.0 | 0.00 | 0.00 | 0.00 | 67 | 988.1 |
| 20260903151608 | 85 | 242 | 15.0 | 19.0 | 0.00 | 0.00 | 0.00 | 67 | 988.1 |
| 20260903150101 | 84 | 204 | 11.0 | 16.0 | 0.00 | 0.00 | 0.00 | 67 | 988.1 |
| 20260903144538 | 84 | 227 | 16.0 | 22.0 | 0.00 | 0.00 | 0.00 | 66 | 988.0 |
| 20260903143038 | 83 | 221 | 11.0 | 17.0 | 0.00 | 0.00 | 0.00 | 63 | 988.0 |
| 20260903141533 | 82 | 223 | 12.0 | 17.0 | 0.00 | 0.00 | 0.00 | 61 | 988.0 |
| 20260903140029 | 82 | 247 | 10.0 | 16.0 | 0.00 | 0.00 | 0.00 | 59 | 988.1 |
| 20260903134528 | 82 | 219 | 9.0 | 16.0 | 0.00 | 0.00 | 0.00 | 57 | 988.1 |
| 20260903133026 | 81 | 232 | 12.0 | 18.0 | 0.00 | 0.00 | 0.00 | 56 | 988.2 |
| 20260903131523 | 81 | 227 | 11.0 | 17.0 | 0.00 | 0.00 | 0.00 | 53 | 988.2 |
| 20260903130024 | 80 | 205 | 9.0 | 15.0 | 0.00 | 0.00 | 0.00 | 52 | 988.1 |
| 20260903124512 | 80 | 229 | 11.0 | 16.0 | 0.00 | 0.00 | 0.00 | 51 | 988.0 |
| 20260903123008 | 80 | 233 | 10.0 | 17.0 | 0.00 | 0.00 | 0.00 | 51 | 987.8 |
| 20260903121511 | 80 | 230 | 11.0 | 17.0 | 0.00 | 0.00 | 0.00 | 50 | 987.7 |
| 20260903120007 | 80 | 224 | 11.0 | 14.0 | 0.00 | 0.00 | 0.00 | 50 | 987.7 |
| 20260903114506 | 80 | 218 | 10.0 | 13.0 | 0.00 | 0.00 | 0.00 | 49 | 987.6 |
| 20260903113004 | 80 | 221 | 9.0 | 16.0 | 0.00 | 0.00 | 0.00 | 48 | 987.6 |